Weather History for KRTN - March, 2013

Change the Weather History Date:

Friday, March 8, 2013

  Actual Average (KTAD) Record (KTAD)
Temperature  
Mean Temperature 45 °F 40 °F  
Max Temperature 63 °F 56 °F 74 °F (1955)
Min Temperature 27 °F 25 °F -2 °F (1998)
Degree Days  
Heating Degree Days 20 25  
Month to date heating degree days 205  
Since 1 July heating degree days 4327  
Cooling Degree Days 0 0  
Month to date cooling degree days 0  
Year to date cooling degree days 0  
Moisture  
Dew Point 22 °F    
Average Humidity 49    
Maximum Humidity 93    
Minimum Humidity 15    
Precipitation  
Precipitation 0.00 in 0.03 in 0.76 in (1979)
Month to date precipitation 0.21  
Year to date precipitation 1.10  
Sea Level Pressure  
Sea Level Pressure 29.74 in    
Wind  
Wind Speed 10 mph (SSW)    
Max Wind Speed 29 mph    
Max Gust Speed 40 mph    
T = Trace of Precipitation, MM = Missing Value Source: NWS Daily Summary

Daily Weather History Graph

Daily Weather History Graph

Search for Another Location

Airport or City:

Trip Planner

Search our weather history database for the weather conditions in past years. The results will help you decide how hot, cold, wet, or windy it might be!

Date:

Astronomy

Mar. 08, 2013 Rise Set
Actual Time 6:18 AM MST 5:59 PM MST
Civil Twilight 5:52 AM MST 6:25 PM MST
Nautical Twilight 5:22 AM MST 6:55 PM MST
Astronomical Twilight 4:52 AM MST 7:25 PM MST
Moon 4:00 AM MST (3/8) 3:00 PM MST (3/8)
Length of Visible Light 12h 32m
Length of Day
11h 40m
Waning Crescent, 11% of the Moon is Illuminated
Mar 8
Waning Crescent
Mar 11
New
Mar 19
First Quarter
Mar 27
Full
Apr 2
Last Quarter

Hourly Weather History & Observations

Time (MST) Temp. Windchill Dew Point Humidity Pressure Visibility Wind Dir Wind Speed Gust Speed Precip Events Conditions
12:53 AM 32.0 °F 24.8 °F 14.0 °F 48% 29.83 in - ENE 8.1 mph - N/A   Clear
1:53 AM 33.1 °F 27.7 °F 12.9 °F 43% 29.81 in - North 5.8 mph - N/A   Clear
2:53 AM 30.0 °F 22.4 °F 14.0 °F 51% 29.80 in - NNE 8.1 mph - N/A   Clear
3:53 AM 28.9 °F 21.9 °F 14.0 °F 54% 29.81 in - East 6.9 mph - N/A   Clear
4:53 AM 28.0 °F 21.7 °F 14.0 °F 56% 29.80 in - ENE 5.8 mph - N/A   Clear
5:53 AM 27.0 °F 19.5 °F 14.0 °F 58% 29.86 in - NNE 6.9 mph - N/A   Clear
6:53 AM 34.0 °F 28.8 °F 15.1 °F 46% 29.86 in - North 5.8 mph - N/A   Clear
7:53 AM 39.0 °F 34.8 °F 17.1 °F 41% 29.86 in - ENE 5.8 mph - N/A   Clear
8:53 AM 48.0 °F - 16.0 °F 28% 29.82 in - Calm Calm - N/A   Clear
9:53 AM 52.0 °F - 15.1 °F 23% 29.81 in - South 6.9 mph - N/A   Clear
10:53 AM 57.9 °F - 15.1 °F 19% 29.75 in - South 9.2 mph - N/A   Clear
11:53 AM 62.1 °F - 15.1 °F 16% 29.70 in - SW 11.5 mph 17.3 mph N/A   Clear
12:53 PM 63.0 °F - 14.0 °F 15% 29.65 in - SSW 24.2 mph 32.2 mph N/A   Clear
1:53 PM 62.1 °F - 14.0 °F 15% 29.62 in - SSW 21.9 mph 31.1 mph N/A   Mostly Cloudy
2:53 PM 57.9 °F - 18.0 °F 21% 29.65 in - WSW 28.8 mph 38.0 mph N/A   Mostly Cloudy
3:01 PM 59.0 °F - 17.6 °F 20% 29.74 in - West 16.1 mph 36.8 mph N/A   Overcast
3:53 PM 57.0 °F - 19.9 °F 24% 29.65 in - SSW 24.2 mph 35.7 mph N/A   Overcast
4:09 PM 57.2 °F - 23.0 °F 27% 29.75 in - SSW 27.6 mph 40.3 mph N/A   Overcast
4:39 PM 55.4 °F - 23.0 °F 29% 29.77 in - WSW 21.9 mph 33.4 mph N/A   Overcast
4:53 PM 54.0 °F - 25.0 °F 33% 29.71 in - WSW 19.6 mph 28.8 mph N/A   Overcast
5:53 PM 43.0 °F 36.8 °F 37.9 °F 82% 29.79 in - SSE 11.5 mph - 0.00 in   Mostly Cloudy
6:53 PM 43.0 °F 40.3 °F 37.0 °F 80% 29.72 in - SSE 4.6 mph - N/A   Scattered Clouds
7:53 PM 39.0 °F 32.3 °F 36.0 °F 89% 29.72 in - South 10.4 mph - N/A   Clear
8:53 PM 37.9 °F 33.5 °F 36.0 °F 93% 29.68 in - South 5.8 mph - N/A   Clear
9:51 PM 37.4 °F 32.1 °F 35.6 °F 93% 29.76 in - SSW 6.9 mph - N/A   Mostly Cloudy
9:53 PM 37.9 °F 33.5 °F 35.1 °F 89% 29.65 in - SSW 5.8 mph - N/A   Mostly Cloudy
10:53 PM 37.9 °F 33.5 °F 36.0 °F 93% 29.60 in - SSW 5.8 mph - N/A   Overcast
11:53 PM 37.0 °F 31.6 °F 35.1 °F 93% 29.55 in - South 6.9 mph - N/A   Mostly Cloudy